Location: Cartignies
(50.0929°N, 3.8447°E)
Time: 14:00:52
(UTC+00:00)

Cosmos 2366 rocket - Pass Details

Date: 12 January 2026
Orbit: 955 x 995 km, 82.9° (Epoch: 15 February)

Event Time Altitude Azimuth Distance (km) Brightness Sun altitude
Rises 17:42:45 0° 350° (N) 3,709 7.0 -14.8°
Reaches altitude 10° 17:45:17 10° 351° (N) 2,761 6.3 -15.2°
Maximum altitude 17:51:39 87° 80° (E) 1,002 4.0 -16.2°
Drops below altitude 10° 17:58:00 10° 171° (S) 2,755 6.4 -17.1°
Sets 18:00:31 0° 172° (S) 3,701 7.1 -17.5°
